Wind_Speed
21 20 19 18 17 16 15 15 15 16 16 17 17 18 19 20 21 22 22 23 23 23 24 25 25 26 27 27 28 29 29 29 29 29 29 29 28 28 28 28 29 29
22 21 21 20 19 18 17 16 16 16 17 17 18 18 19 20 20 21 22 23 24 25 25 26 27 27 28 29 29 30 30 29 29 28 28 27 27 27 28 29 29 30
22 22 22 21 21 20 19 18 17 17 17 18 19 19 20 20 20 21 22 23 24 25 26 27 27 28 28 29 29 29 28 28 27 27 27 26 26 27 28 29 29 29
23 23 23 22 23 23 21 19 19 19 18 18 19 20 20 21 21 21 22 22 23 24 25 26 26 27 27 28 27 27 27 27 26 26 25 25 26 27 29 29 29 29
24 24 23 24 24 24 23 21 19 19 20 20 20 20 21 21 21 21 22 22 23 24 25 25 26 26 27 27 27 26 26 26 26 25 24 25 26 28 28 29 29 29
25 24 24 24 25 25 23 22 21 21 20 20 20 21 21 22 22 22 22 23 23 24 25 26 26 27 27 27 27 27 26 26 25 24 24 26 27 28 29 29 29 30
25 24 24 25 25 25 24 24 24 23 21 21 21 21 21 22 22 23 23 24 24 24 25 26 27 28 28 28 28 27 26 25 24 24 25 26 28 29 29 30 30 30
25 25 25 26 26 26 26 25 25 24 22 21 21 21 21 21 22 23 24 24 24 25 26 26 27 28 28 28 27 26 25 25 24 24 25 27 28 29 30 30 30 29
25 25 25 26 27 27 26 25 25 24 23 22 21 21 21 21 22 23 24 24 24 25 25 26 27 27 27 27 27 26 25 25 24 25 26 27 29 30 30 30 30 30
27 26 26 27 29 29 27 25 24 23 23 22 22 21 22 22 22 22 23 23 24 24 25 26 26 26 26 26 26 26 25 25 25 26 27 28 29 30 30 29 29 30
30 29 28 29 31 32 29 25 23 23 23 22 22 21 22 22 22 22 23 23 23 24 25 25 26 26 26 26 26 26 25 25 26 27 27 28 29 30 29 28 29 30
32 32 30 30 32 33 29 25 23 22 22 21 21 22 22 22 22 22 23 23 24 25 25 26 26 26 26 26 26 26 26 26 27 28 28 29 30 29 29 28 29 30
33 33 32 30 31 32 30 25 23 21 20 20 21 22 22 22 23 23 23 23 24 25 26 27 27 27 27 27 27 27 27 28 28 29 29 30 30 30 29 29 30 30
33 33 32 30 30 32 31 26 23 21 20 20 21 22 22 22 22 23 23 24 25 25 26 27 27 27 27 28 28 28 28 28 29 29 30 31 31 30 31 31 31 32
34 34 33 31 31 32 31 27 23 21 20 21 21 21 22 22 22 22 23 24 24 25 26 27 27 27 28 28 29 28 28 29 29 30 30 31 31 31 31 32 33 34
32 33 33 33 32 31 30 26 22 21 21 21 21 21 21 21 22 23 23 23 24 25 26 27 27 27 28 28 28 28 29 29 30 31 31 31 31 31 32 33 34 35
31 32 32 31 31 31 29 25 22 21 21 21 21 21 21 22 23 24 23 23 24 25 26 26 27 27 27 28 28 28 29 30 31 32 32 32 32 32 33 35 36 37
29 29 28 29 30 30 28 25 22 21 21 22 22 22 22 23 24 24 24 24 25 25 25 25 26 26 26 27 27 28 30 31 33 33 33 33 33 34 35 37 38 39
25 24 24 26 28 27 26 25 23 22 21 21 22 22 23 24 25 25 26 25 25 25 24 24 24 24 25 26 27 29 31 33 34 34 34 34 35 36 37 39 40 41
23 22 23 26 27 25 23 23 22 22 21 21 22 23 23 24 24 25 26 26 25 24 23 24 23 23 24 25 27 29 31 33 35 35 35 36 37 37 39 40 41 39
27 24 25 26 27 25 23 22 21 21 21 22 23 23 24 24 24 24 25 25 25 24 23 23 23 23 24 26 28 29 30 33 36 37 39 40 40 39 39 39 38 37
31 28 26 27 28 28 27 24 21 21 21 22 22 23 23 24 23 23 24 24 24 25 24 24 24 24 25 27 28 28 29 31 34 37 40 42 40 37 36 36 37 39
29 29 29 29 30 31 29 25 22 21 21 21 21 22 23 24 24 24 24 24 24 25 25 26 27 27 27 28 28 27 27 29 31 33 37 39 37 35 35 38 41 44
26 29 32 31 32 33 30 25 22 22 21 21 22 23 24 24 25 25 26 26 26 26 26 28 30 29 28 27 27 26 26 25 26 29 34 37 38 39 39 39 40 43
26 28 30 30 33 35 32 28 24 23 23 24 25 26 26 25 25 26 27 27 26 26 27 29 31 31 28 27 28 28 24 21 26 34 38 40 42 42 41 40 40 43
25 27 29 31 34 36 35 34 31 28 28 28 28 28 26 25 26 27 28 27 27 27 28 30 31 31 29 28 30 30 25 24 33 43 45 44 45 44 44 46 45 45
Wind_Direction
336 339 339 337 331 324 314 306 300 298 296 294 293 291 289 286 282 280 279 278 278 278 279 280 281 282 284 285 287 288 290 293 295 297 299 300 301 304 306 308 307 306
333 335 338 339 335 328 320 311 303 298 296 295 293 291 290 289 287 285 283 281 281 281 281 282 283 284 286 287 288 290 292 294 296 298 299 301 304 307 310 310 308 306
332 332 334 337 338 333 324 316 308 301 296 294 293 292 291 290 290 289 288 286 285 284 284 285 285 286 287 288 289 291 293 295 297 299 301 305 308 311 311 310 309 307
329 329 329 331 335 335 328 320 313 306 299 294 292 291 291 290 290 290 290 290 290 289 289 288 288 288 288 289 290 292 294 296 298 301 305 309 311 311 311 310 309 308
325 324 324 325 328 330 328 322 318 312 303 296 292 290 290 289 290 290 291 291 291 291 291 291 290 290 290 290 291 293 295 298 301 305 309 311 311 311 311 312 311 309
323 322 322 321 322 325 324 321 319 317 308 300 294 290 289 289 289 290 290 291 292 292 292 292 292 291 291 291 292 294 296 299 303 308 311 311 311 311 312 313 312 310
324 323 323 322 321 320 319 316 316 315 310 303 296 291 288 288 288 289 290 291 292 293 294 294 293 292 292 292 293 295 298 301 305 310 312 312 311 312 313 313 313 313
325 325 324 323 321 318 315 312 312 311 308 304 298 292 288 287 287 288 289 290 291 293 295 296 295 294 293 293 294 296 299 303 308 312 312 311 312 313 314 315 315 315
319 322 323 323 321 318 313 310 308 306 304 302 299 293 288 285 285 286 287 288 290 292 296 297 296 295 294 294 295 298 301 304 309 311 310 311 313 314 316 317 318 318
310 313 320 325 324 321 315 309 304 301 299 298 296 293 288 283 283 284 286 287 288 291 295 296 296 295 294 295 296 298 301 305 307 308 309 310 312 315 317 319 320 320
303 305 312 321 325 323 316 308 301 298 295 293 292 290 287 283 281 282 284 285 287 290 294 295 294 294 293 294 296 297 300 303 305 306 307 309 312 315 318 319 321 322
303 304 307 315 323 323 316 306 299 296 293 290 288 288 286 282 279 280 281 283 286 289 291 292 292 292 292 293 294 296 299 302 304 305 306 308 311 314 317 318 320 322
302 305 307 311 318 322 319 308 299 295 292 289 288 288 285 281 277 277 278 280 283 286 289 290 291 291 291 291 293 296 299 302 304 305 306 308 311 314 315 316 317 320
301 305 308 310 312 319 322 313 301 295 292 289 289 287 284 279 275 276 276 277 280 283 286 288 289 290 290 291 294 297 300 303 303 304 305 307 309 313 314 314 315 316
300 303 307 309 309 314 319 314 303 296 291 290 291 288 284 278 274 274 274 275 277 279 282 286 287 288 289 292 296 299 301 301 301 301 303 305 308 310 311 312 313 315
299 300 303 306 306 310 314 311 303 296 292 291 293 291 287 280 274 273 273 273 275 276 279 283 286 287 290 293 297 299 299 299 298 299 302 304 307 309 309 311 313 315
300 302 305 307 307 307 308 306 301 296 293 292 294 294 291 284 277 274 272 271 271 273 276 281 285 288 291 296 300 300 299 298 297 298 301 303 305 307 308 310 312 314
304 305 310 313 311 305 302 301 298 295 294 293 294 295 294 288 282 276 272 270 270 272 275 280 285 289 294 299 303 303 301 299 297 297 299 300 301 302 303 306 309 311
310 309 312 317 314 305 299 299 298 296 295 295 294 295 296 294 287 278 273 271 272 273 277 281 286 291 296 300 302 302 301 299 298 299 299 298 298 299 300 303 306 308
310 307 311 317 318 312 305 302 300 299 299 298 296 295 297 298 292 282 277 276 276 277 279 282 287 292 295 296 297 297 298 299 299 300 300 300 300 301 303 304 306 309
306 308 312 316 316 316 314 308 303 302 302 301 299 297 297 299 295 288 283 282 281 280 281 283 287 290 290 290 290 292 295 297 298 300 302 302 304 307 308 307 308 308
302 307 311 311 308 311 314 310 305 303 303 302 301 299 299 298 296 292 288 286 284 283 282 282 283 283 283 283 285 289 294 297 300 304 305 304 307 310 309 306 305 304
301 303 305 305 305 306 308 306 303 302 302 302 300 299 299 298 297 294 289 285 283 281 280 280 279 279 281 283 287 292 297 302 307 308 305 303 303 303 300 300 301 302
296 298 301 303 303 303 303 301 299 300 300 300 297 296 297 298 296 292 288 284 282 280 278 278 278 280 284 288 289 293 299 306 307 301 295 291 289 288 291 295 297 296
286 293 295 291 288 292 295 295 294 296 297 297 295 294 294 295 294 291 288 287 286 285 284 281 281 285 288 288 287 289 294 298 292 286 282 279 279 282 286 289 287 285
273 278 275 270 272 279 286 289 290 292 292 292 292 291 291 292 294 294 292 290 288 287 285 283 284 286 285 281 282 284 284 278 275 274 271 271 274 278 282 284 283 280
Height
10684 10683 10682 10681 10680 10679 10679 10678 10678 10677 10677 10677 10677 10677 10677 10677 10677 10677 10676 10676 10676 10675 10675 10674 10674 10674 10673 10672 10672 10671 10670 10670 10669 10668 10667 10666 10665 10663 10662 10660 10658 10656
10682 10681 10680 10679 10678 10678 10677 10676 10675 10675 10675 10675 10675 10674 10674 10674 10674 10674 10674 10673 10673 10672 10672 10671 10671 10670 10670 10669 10669 10668 10667 10667 10666 10665 10664 10663 10662 10660 10658 10657 10655 10653
10679 10679 10678 10677 10676 10675 10674 10674 10673 10673 10672 10672 10672 10672 10672 10671 10671 10671 10671 10670 10670 10669 10669 10668 10668 10667 10667 10666 10665 10665 10664 10664 10663 10662 10661 10660 10658 10657 10655 10653 10651 10649
10676 10676 10675 10674 10674 10673 10672 10671 10671 10670 10670 10669 10669 10669 10669 10669 10668 10668 10667 10667 10667 10666 10666 10665 10665 10664 10663 10663 10662 10662 10661 10660 10659 10659 10658 10656 10655 10653 10651 10649 10647 10645
10674 10673 10672 10672 10671 10670 10669 10668 10668 10667 10667 10666 10666 10666 10666 10665 10665 10665 10664 10664 10664 10663 10663 10662 10661 10661 10660 10659 10659 10658 10657 10657 10656 10655 10654 10653 10651 10650 10648 10646 10644 10641
10672 10670 10669 10668 10668 10667 10666 10665 10665 10664 10664 10663 10663 10662 10662 10662 10662 10661 10661 10661 10660 10660 10659 10659 10658 10657 10657 10656 10655 10655 10654 10653 10652 10652 10651 10649 10647 10646 10644 10642 10640 10638
10670 10668 10667 10666 10665 10664 10663 10662 10661 10661 10660 10660 10659 10659 10659 10658 10658 10657 10657 10657 10656 10656 10656 10655 10654 10653 10653 10652 10652 10651 10650 10649 10649 10648 10647 10645 10644 10642 10641 10639 10637 10634
10667 10666 10665 10663 10662 10661 10659 10658 10657 10657 10657 10656 10656 10655 10655 10655 10654 10654 10653 10653 10653 10652 10652 10651 10650 10649 10649 10648 10648 10647 10647 10646 10645 10645 10644 10642 10640 10639 10637 10635 10633 10631
10666 10664 10663 10661 10659 10658 10656 10654 10653 10653 10652 10652 10652 10651 10651 10651 10651 10650 10650 10650 10649 10649 10648 10648 10647 10646 10645 10645 10645 10644 10644 10643 10642 10642 10641 10639 10637 10636 10634 10632 10630 10628
10663 10662 10660 10659 10657 10655 10653 10651 10649 10649 10648 10648 10647 10647 10647 10647 10647 10646 10646 10646 10646 10646 10645 10645 10644 10643 10643 10642 10642 10641 10641 10640 10640 10639 10638 10636 10635 10634 10632 10630 10628 10625
10660 10659 10658 10656 10654 10652 10649 10647 10646 10645 10644 10644 10643 10643 10643 10643 10643 10643 10643 10643 10643 10642 10642 10641 10641 10640 10640 10639 10639 10639 10638 10638 10637 10636 10635 10634 10633 10631 10630 10628 10625 10623
10657 10656 10655 10654 10652 10649 10646 10644 10642 10641 10641 10640 10639 10639 10639 10639 10639 10639 10639 10639 10639 10639 10638 10638 10637 10637 10637 10636 10636 10636 10636 10635 10635 10634 10632 10631 10630 10628 10627 10625 10623 10621
10653 10652 10652 10650 10649 10646 10644 10641 10639 10638 10637 10636 10636 10636 10635 10635 10635 10635 10635 10635 10635 10635 10635 10634 10634 10633 10633 10633 10633 10633 10632 10632 10631 10630 10629 10628 10626 10625 10623 10621 10619 10617
10650 10649 10648 10647 10646 10644 10641 10638 10636 10635 10634 10633 10633 10632 10632 10632 10631 10631 10631 10631 10631 10631 10631 10631 10630 10630 10630 10629 10629 10629 10629 10628 10627 10626 10625 10624 10622 10621 10619 10617 10615 10613
10646 10645 10644 10644 10642 10641 10639 10636 10634 10632 10631 10630 10630 10629 10628 10628 10628 10628 10628 10628 10627 10627 10627 10627 10627 10627 10626 10626 10626 10626 10625 10625 10623 10622 10621 10620 10619 10617 10615 10613 10611 10610
10641 10641 10641 10640 10639 10638 10636 10633 10631 10630 10628 10627 10627 10626 10625 10625 10625 10624 10624 10624 10624 10624 10623 10623 10624 10623 10623 10623 10623 10622 10622 10621 10619 10618 10617 10616 10615 10613 10611 10610 10608 10606
10637 10636 10636 10636 10635 10634 10632 10630 10628 10627 10625 10624 10623 10622 10622 10621 10621 10621 10621 10620 10620 10620 10620 10620 10620 10620 10620 10620 10619 10618 10617 10616 10615 10614 10613 10612 10610 10609 10607 10606 10604 10602
10634 10633 10633 10632 10631 10630 10628 10626 10625 10623 10622 10621 10620 10619 10618 10617 10617 10617 10617 10617 10616 10617 10617 10617 10617 10617 10617 10616 10615 10614 10613 10611 10610 10609 10609 10608 10607 10605 10603 10602 10600 10599
10632 10631 10630 10629 10627 10626 10624 10623 10621 10620 10619 10618 10617 10616 10615 10614 10613 10613 10613 10613 10613 10613 10614 10614 10614 10614 10614 10613 10611 10610 10608 10606 10604 10604 10603 10603 10602 10601 10600 10598 10596 10595
10631 10629 10628 10626 10624 10622 10621 10619 10618 10616 10616 10615 10614 10613 10612 10611 10610 10609 10609 10610 10610 10610 10610 10610 10610 10611 10610 10609 10608 10605 10603 10600 10598 10597 10597 10596 10596 10595 10594 10593 10591 10590
10630 10627 10625 10623 10622 10620 10618 10616 10614 10613 10612 10611 10611 10610 10609 10608 10607 10607 10606 10607 10607 10607 10607 10607 10607 10607 10606 10604 10603 10601 10599 10596 10593 10591 10590 10589 10588 10588 10588 10586 10585 10585
10627 10624 10622 10620 10618 10617 10615 10612 10611 10609 10609 10608 10607 10607 10606 10605 10605 10604 10604 10604 10604 10604 10603 10603 10603 10603 10601 10600 10598 10597 10595 10593 10591 10589 10586 10583 10582 10582 10582 10580 10579 10578
10623 10620 10618 10617 10615 10613 10611 10609 10607 10606 10605 10605 10604 10603 10603 10602 10602 10602 10601 10601 10600 10600 10600 10599 10598 10598 10597 10596 10594 10593 10592 10591 10589 10586 10581 10578 10577 10577 10577 10575 10574 10572
10619 10617 10615 10612 10610 10608 10606 10605 10604 10603 10602 10602 10601 10600 10600 10599 10599 10598 10598 10598 10597 10597 10597 10595 10594 10593 10593 10592 10591 10589 10589 10587 10584 10580 10577 10574 10573 10574 10574 10573 10571 10568
10615 10614 10612 10609 10605 10602 10601 10600 10600 10600 10599 10599 10598 10597 10596 10596 10595 10595 10594 10594 10594 10594 10593 10592 10590 10589 10590 10589 10587 10585 10585 10583 10578 10574 10572 10571 10570 10571 10570 10569 10567 10564
10609 10608 10607 10604 10600 10597 10596 10595 10596 10597 10597 10596 10595 10594 10593 10592 10592 10591 10591 10590 10590 10590 10589 10588 10586 10586 10585 10584 10582 10581 10581 10578 10572 10567 10565 10566 10567 10567 10565 10563 10561 10559